{"data":{"norad_id":68845,"epoch":"2026-09-20T00:42:56.807424Z","epoch_age_seconds":56036,"freshness":"FRESH","line1":"1 68845U 26094G   26263.02982416  .00004434  00000+0  13958-3 0  9996","line2":"2 68845  97.2845 276.1287 0001614  92.7608 267.3819 15.33443986 22584","mean_motion":15.33443986,"eccentricity":0.0001614,"inclination_deg":97.2845,"raan_deg":276.1287,"arg_perigee_deg":92.7608,"mean_anomaly_deg":267.3819,"bstar":0.00013958,"rev_number":2258,"period_min":93.906266752935,"perigee_km":464.44162096329,"apogee_km":466.65076189748,"semimajor_km":6843.6831914304,"source":"CELESTRAK","updated_at":"2026-09-20T09:00:44.015243Z"}}